Regional Weather Roundup
Issued by NWS

Home | Current Version | Previous Version | Text Only | Print | Product List | Glossary Off
Versions: 1 2 3 4 5 6 7 8 9 10 11 12 13 14 15 16 17 18 19 20 21 22 23 24 25 26 27 28 29 30 31 32 33 34 35 36 37 38 39 40 41 42 43 44 45 46 47 48 49 50

000
ASUS43 KBIS 271810
RWRND

NORTH DAKOTA REGIONAL WEATHER ROUNDUP
NATIONAL WEATHER SERVICE BISMARCK ND
100 PM CDT MON JUL 27 2015

NOTE: "FAIR" INDICATES FEW OR NO CLOUDS BELOW 12,000 FEET WITH NO
SIGNIFICANT WEATHER AND/OR OBSTRUCTIONS TO VISIBILITY.


NDZ001>003-009>011-017-271900-
NORTHWEST NORTH DAKOTA

CITY           SKY/WX    TMP DP  RH WIND       PRES   REMARKS
WILLISTON      SUNNY     87  56  34 SE16G22   29.71F
6HR MIN TEMP:  66; 6HR MAX TEMP:  87; 6HR PCP: TRACE;

MINOT          MOSUNNY   85  66  53 E14       29.76S
MINOT AFB      MOSUNNY   84  70  62 SE21      29.73F
$$

NDZ018>021-031>035-040>046-271900-
SOUTHWEST NORTH DAKOTA

CITY           SKY/WX    TMP DP  RH WIND       PRES   REMARKS
BISMARCK       SUNNY     86  69  56 SE16      29.75F HX  90
6HR MIN TEMP:  68; 6HR MAX TEMP:  86;

DICKINSON      SUNNY     82  65  56 SE14      29.71F
GARRISON         N/A     80  68  66 SE15      29.74F
6HR MIN TEMP:  63; 6HR MAX TEMP:  80;

HETTINGER ARPT SUNNY     84  64  50 SE15G22   29.75R
$$

NDZ004>008-012>016-024-026-027-054-271900-
NORTHEAST NORTH DAKOTA

CITY           SKY/WX    TMP DP  RH WIND       PRES   REMARKS
GRAND FORKS    PTSUNNY   85  71  63 SE12      29.85S HX  90
GRND FRKS AFB  MOSUNNY   84  72  67 S8        29.85F
DEVILS LAKE    SUNNY     82  66  57 SE18      29.81F
$$

NDZ022-023-025-028>030-036>039-047>053-271900-
SOUTHEAST NORTH DAKOTA

CITY           SKY/WX    TMP DP  RH WIND       PRES   REMARKS
FARGO          PTSUNNY   85  69  58 S14       29.84F
6HR MIN TEMP:  72; 6HR MAX TEMP:  86;

JAMESTOWN      MOSUNNY   83  70  64 SE16      29.82F
$$




USA.gov is the U.S. government's official web portal to all federal, state and local government web resources and services.